Weather History for KDGW - November, 2012

Change the Weather History Date:

Wednesday, November 14, 2012

  Actual Average Record
Temperature  
Mean Temperature 36 °F 34 °F  
Max Temperature 53 °F 47 °F 71 °F (1999)
Min Temperature 19 °F 20 °F 0 °F (2000)
Degree Days  
Heating Degree Days 29 31  
Month to date heating degree days 326 392  
Since 1 July heating degree days 1096 1259  
Cooling Degree Days 0 0  
Month to date cooling degree days 0 0  
Year to date cooling degree days 831 486  
Moisture  
Dew Point 22 °F    
Average Humidity 56    
Maximum Humidity 84    
Minimum Humidity 28    
Precipitation  
Precipitation 0.00 in 0.02 in 0.28 in (2006)
Month to date precipitation 0.02 0.36  
Year to date precipitation 5.10 12.70  
Sea Level Pressure  
Sea Level Pressure 30.19 in    
Wind  
Wind Speed 9 mph (WNW)    
Max Wind Speed 28 mph    
Max Gust Speed 35 mph    
T = Trace of Precipitation, MM = Missing Value Source: NWS Daily Summary

Daily Weather History Graph

Daily Weather History Graph

Search for Another Location

Airport or City:

Trip Planner

Search our weather history database for the weather conditions in past years. The results will help you decide how hot, cold, wet, or windy it might be!

Date:

Astronomy

Nov. 14, 2012 Rise Set
Actual Time 6:52 AM MST 4:38 PM MST
Civil Twilight 6:22 AM MST 5:09 PM MST
Nautical Twilight 5:48 AM MST 5:43 PM MST
Astronomical Twilight 5:14 AM MST 6:16 PM MST
Moon 7:46 AM MST (11/14) 5:28 PM MST (11/14)
Length of Visible Light 10h 46m
Length of Day
9h 45m
New Moon, 1% of the Moon is Illuminated
Nov 14
New Moon
Nov 20
First Quarter
Nov 28
Full
Dec 6
Last Quarter
Dec 13
New

Hourly Weather History & Observations

Time (MST) Temp. Windchill Dew Point Humidity Pressure Visibility Wind Dir Wind Speed Gust Speed Precip Events Conditions
12:53 AM 19.9 °F - 16.0 °F 85% 30.23 in - Calm Calm - N/A   Clear
1:53 AM 23.0 °F 18.4 °F 18.0 °F 81% 30.21 in - Variable 3.5 mph - N/A   Clear
2:53 AM 21.0 °F - 16.0 °F 81% 30.23 in - Calm Calm - N/A   Clear
3:53 AM 21.9 °F - 18.0 °F 85% 30.22 in - Calm Calm - N/A   Clear
4:53 AM 23.0 °F - 18.0 °F 81% 30.23 in - Calm Calm - N/A   Clear
5:53 AM 23.0 °F - 18.0 °F 81% 30.25 in - Calm Calm - N/A   Clear
6:53 AM 24.1 °F 19.7 °F 19.0 °F 81% 30.25 in - SW 3.5 mph - N/A   Clear
7:53 AM 28.9 °F 25.2 °F 24.1 °F 82% 30.24 in - SSE 3.5 mph - N/A   Clear
8:53 AM 39.9 °F 37.8 °F 25.0 °F 55% 30.20 in - North 3.5 mph - N/A   Clear
9:53 AM 45.0 °F 41.8 °F 25.0 °F 46% 30.19 in - Variable 5.8 mph - N/A   Clear
10:18 AM 48.2 °F - 21.2 °F 34% 30.13 in - West 19.6 mph 26.5 mph N/A   Clear
10:53 AM 50.0 °F - 19.9 °F 31% 30.14 in - West 20.7 mph 27.6 mph N/A   Clear
11:53 AM 50.0 °F - 19.9 °F 31% 30.13 in - West 23.0 mph 29.9 mph N/A   Clear
12:53 PM 52.0 °F - 19.9 °F 28% 30.11 in - West 24.2 mph 33.4 mph N/A   Clear
1:53 PM 52.0 °F - 21.0 °F 30% 30.09 in - West 24.2 mph 31.1 mph N/A   Partly Cloudy
2:53 PM 51.1 °F - 23.0 °F 33% 30.11 in - West 20.7 mph 26.5 mph N/A   Clear
3:53 PM 48.0 °F - 24.1 °F 39% 30.13 in - West 18.4 mph - N/A   Mostly Cloudy
4:53 PM 43.0 °F 37.7 °F 24.1 °F 47% 30.15 in - WNW 9.2 mph - N/A   Partly Cloudy
5:53 PM 45.0 °F 40.1 °F 25.0 °F 46% 30.17 in - WNW 9.2 mph - N/A   Mostly Cloudy
6:53 PM 39.9 °F 35.1 °F 26.1 °F 58% 30.19 in - NNW 6.9 mph - N/A   Overcast
7:53 PM 42.1 °F 36.1 °F 28.0 °F 58% 30.19 in - NNW 10.4 mph - N/A   Mostly Cloudy
8:53 PM 39.0 °F 33.4 °F 28.0 °F 65% 30.20 in - NNW 8.1 mph - N/A   Overcast
9:53 PM 36.0 °F 30.3 °F 26.1 °F 67% 30.22 in - WNW 6.9 mph - N/A   Overcast
10:53 PM 34.0 °F 29.8 °F 24.1 °F 67% 30.24 in - NW 4.6 mph - N/A   Overcast
11:53 PM 30.9 °F 27.5 °F 23.0 °F 72% 30.27 in - West 3.5 mph - N/A   Scattered Clouds